| time (UTC) | temp F | wind direction | speed MPH | gust MPH | rain 1hr in | rain 24hr in | rain mn in | humidity % | barometer mb |
| 20260904124908 | 79 | 81 | 1.0 | 1.0 | 0.00 | 0.00 | 0.00 | 97 | 1016.5 |
| 20260904124405 | 79 | 65 | 0.0 | 1.0 | 0.00 | 0.00 | 0.00 | 97 | 1016.3 |
| 20260904123900 | 79 | 68 | 0.0 | 2.0 | 0.00 | 0.00 | 0.00 | 97 | 1016.1 |
| 20260904123355 | 79 | 72 | 0.0 | 1.0 | 0.00 | 0.00 | 0.00 | 97 | 1016.3 |
| 20260904122851 | 79 | 66 | 0.0 | 0.0 | 0.00 | 0.00 | 0.00 | 97 | 1016.2 |
| 20260904122350 | 79 | 72 | 0.0 | 1.0 | 0.00 | 0.00 | 0.00 | 97 | 1016.1 |
| 20260904121844 | 79 | 70 | 0.0 | 1.0 | 0.00 | 0.00 | 0.00 | 97 | 1016.2 |
| 20260904121341 | 79 | 67 | 1.0 | 1.0 | 0.00 | 0.00 | 0.00 | 97 | 1016.1 |
| 20260904120837 | 79 | 77 | 1.0 | 2.0 | 0.00 | 0.00 | 0.00 | 97 | 1016.0 |
| 20260904120333 | 79 | 82 | 1.0 | 1.0 | 0.00 | 0.00 | 0.00 | 97 | 1016.0 |
| 20260904115828 | 79 | 70 | 0.0 | 1.0 | 0.00 | 0.00 | 0.00 | 97 | 1016.0 |
| 20260904115323 | 79 | 69 | 0.0 | 1.0 | 0.00 | 0.00 | 0.00 | 97 | 1015.7 |
| 20260904114823 | 79 | 77 | 0.0 | 1.0 | 0.00 | 0.00 | 0.00 | 97 | 1015.6 |
| 20260904114318 | 79 | 68 | 1.0 | 1.0 | 0.00 | 0.00 | 0.00 | 96 | 1015.6 |
| 20260904113813 | 79 | 71 | 0.0 | 1.0 | 0.00 | 0.00 | 0.00 | 96 | 1015.6 |
| 20260904113312 | 79 | 70 | 0.0 | 1.0 | 0.00 | 0.00 | 0.00 | 96 | 1015.5 |
| 20260904112807 | 80 | 68 | 0.0 | 1.0 | 0.00 | 0.00 | 0.00 | 96 | 1015.7 |
| 20260904112305 | 80 | 84 | 0.0 | 1.0 | 0.00 | 0.00 | 0.00 | 96 | 1015.6 |
| 20260904111758 | 80 | 60 | 0.0 | 1.0 | 0.00 | 0.00 | 0.00 | 96 | 1015.6 |
| 20260904111254 | 79 | 86 | 0.0 | 1.0 | 0.00 | 0.00 | 0.00 | 96 | 1015.5 |
| 20260904110749 | 79 | 68 | 1.0 | 1.0 | 0.00 | 0.00 | 0.00 | 96 | 1015.6 |
| 20260904110248 | 79 | 65 | 0.0 | 0.0 | 0.00 | 0.00 | 0.00 | 96 | 1015.4 |
| 20260904105744 | 79 | 63 | 0.0 | 2.0 | 0.00 | 0.00 | 0.00 | 96 | 1015.7 |
| 20260904105238 | 79 | 59 | 0.0 | 0.0 | 0.00 | 0.00 | 0.00 | 96 | 1015.4 |
| 20260904104733 | 79 | 48 | 0.0 | 0.0 | 0.00 | 0.00 | 0.00 | 96 | 1015.5 |
| 20260904104229 | 79 | 59 | 0.0 | 0.0 | 0.00 | 0.00 | 0.00 | 96 | 1015.5 |
| 20260904103726 | 79 | 62 | 0.0 | 0.0 | 0.00 | 0.00 | 0.00 | 96 | 1015.4 |
| 20260904103220 | 79 | 62 | 0.0 | 0.0 | 0.00 | 0.00 | 0.00 | 96 | 1015.3 |
| 20260904102716 | 79 | 63 | 0.0 | 0.0 | 0.00 | 0.00 | 0.00 | 96 | 1015.3 |
| 20260904102211 | 79 | 67 | 0.0 | 0.0 | 0.00 | 0.00 | 0.00 | 96 | 1015.4 |
| 20260904101708 | 79 | 63 | 0.0 | 0.0 | 0.00 | 0.00 | 0.00 | 96 | 1015.4 |
| 20260904101203 | 79 | 65 | 0.0 | 2.0 | 0.00 | 0.00 | 0.00 | 96 | 1015.3 |
| 20260904100659 | 79 | 74 | 0.0 | 1.0 | 0.00 | 0.00 | 0.00 | 96 | 1015.3 |
| 20260904100155 | 79 | 66 | 0.0 | 0.0 | 0.00 | 0.00 | 0.00 | 96 | 1015.4 |
| 20260904095654 | 79 | 271 | 1.0 | 3.0 | 0.00 | 0.00 | 0.00 | 96 | 1015.3 |
| 20260904095148 | 79 | 61 | 0.0 | 0.0 | 0.00 | 0.00 | 0.00 | 96 | 1015.4 |
| 20260904094644 | 79 | 73 | 2.0 | 2.0 | 0.00 | 0.00 | 0.00 | 97 | 1015.4 |
| 20260904094138 | 79 | 79 | 0.0 | 1.0 | 0.00 | 0.00 | 0.00 | 97 | 1015.5 |
| 20260904093636 | 79 | 67 | 0.0 | 1.0 | 0.00 | 0.00 | 0.00 | 97 | 1015.3 |
| 20260904093135 | 79 | 64 | 1.0 | 2.0 | 0.00 | 0.00 | 0.00 | 97 | 1015.0 |
| 20260904092631 | 79 | 71 | 0.0 | 1.0 | 0.00 | 0.00 | 0.00 | 97 | 1014.9 |
| 20260904092127 | 79 | 69 | 0.0 | 1.0 | 0.00 | 0.00 | 0.00 | 97 | 1015.5 |
| 20260904091623 | 79 | 72 | 0.0 | 2.0 | 0.00 | 0.00 | 0.00 | 97 | 1015.4 |
| 20260904091123 | 79 | 64 | 0.0 | 1.0 | 0.00 | 0.00 | 0.00 | 97 | 1015.3 |
| 20260904090618 | 79 | 68 | 0.0 | 1.0 | 0.00 | 0.00 | 0.00 | 97 | 1015.2 |
| 20260904090115 | 79 | 67 | 0.0 | 2.0 | 0.00 | 0.00 | 0.00 | 96 | 1015.5 |
| 20260904085614 | 79 | 79 | 0.0 | 0.0 | 0.00 | 0.00 | 0.00 | 96 | 1015.3 |
| 20260904085114 | 79 | 73 | 0.0 | 1.0 | 0.00 | 0.00 | 0.00 | 96 | 1015.3 |
| 20260904084610 | 80 | 60 | 1.0 | 1.0 | 0.00 | 0.00 | 0.00 | 96 | 1015.3 |
| 20260904084106 | 80 | 72 | 1.0 | 3.0 | 0.00 | 0.00 | 0.00 | 96 | 1015.2 |
| 20260904083602 | 80 | 66 | 0.0 | 1.0 | 0.00 | 0.00 | 0.00 | 96 | 1015.4 |
| 20260904083057 | 80 | 69 | 1.0 | 2.0 | 0.00 | 0.00 | 0.00 | 95 | 1015.2 |
| 20260904082552 | 80 | 66 | 0.0 | 2.0 | 0.00 | 0.00 | 0.00 | 95 | 1015.2 |
| 20260904082048 | 80 | 64 | 0.0 | 1.0 | 0.00 | 0.00 | 0.00 | 95 | 1015.3 |
| 20260904081543 | 80 | 67 | 0.0 | 2.0 | 0.00 | 0.00 | 0.00 | 95 | 1015.3 |
| 20260904081038 | 80 | 70 | 1.0 | 3.0 | 0.00 | 0.00 | 0.00 | 95 | 1015.2 |
| 20260904080534 | 80 | 87 | 0.0 | 1.0 | 0.00 | 0.00 | 0.00 | 95 | 1015.3 |
| 20260904080030 | 80 | 61 | 0.0 | 0.0 | 0.00 | 0.00 | 0.00 | 95 | 1015.5 |
| 20260904075526 | 80 | 65 | 0.0 | 2.0 | 0.00 | 0.00 | 0.00 | 95 | 1015.3 |
| 20260904075020 | 80 | 77 | 1.0 | 4.0 | 0.00 | 0.00 | 0.00 | 95 | 1015.3 |
| 20260904074515 | 80 | 61 | 1.0 | 1.0 | 0.00 | 0.00 | 0.00 | 95 | 1015.0 |
| 20260904074014 | 80 | 66 | 0.0 | 1.0 | 0.00 | 0.00 | 0.00 | 95 | 1015.4 |
| 20260904073510 | 80 | 91 | 1.0 | 2.0 | 0.00 | 0.00 | 0.00 | 96 | 1015.4 |
| 20260904073006 | 80 | 93 | 1.0 | 3.0 | 0.00 | 0.00 | 0.00 | 96 | 1015.5 |
| 20260904072502 | 80 | 60 | 0.0 | 1.0 | 0.00 | 0.00 | 0.00 | 96 | 1015.5 |
| 20260904072002 | 79 | 66 | 0.0 | 0.0 | 0.00 | 0.00 | 0.00 | 96 | 1015.6 |
| 20260904071457 | 80 | 154 | 1.0 | 1.0 | 0.00 | 0.00 | 0.00 | 95 | 1015.5 |
| 20260904070952 | 80 | 63 | 0.0 | 1.0 | 0.00 | 0.00 | 0.00 | 95 | 1015.4 |
| 20260904070450 | 80 | 67 | 0.0 | 0.0 | 0.00 | 0.00 | 0.00 | 95 | 1015.7 |
| 20260904065945 | 80 | 73 | 1.0 | 2.0 | 0.00 | 0.00 | 0.00 | 95 | 1015.7 |
| 20260904065441 | 80 | 73 | 0.0 | 1.0 | 0.00 | 0.00 | 0.00 | 95 | 1015.7 |
| 20260904064936 | 80 | 54 | 1.0 | 1.0 | 0.00 | 0.00 | 0.00 | 95 | 1015.7 |
| 20260904064433 | 80 | 62 | 0.0 | 1.0 | 0.00 | 0.00 | 0.00 | 95 | 1015.9 |
| 20260904063927 | 80 | 74 | 1.0 | 2.0 | 0.00 | 0.00 | 0.00 | 95 | 1015.8 |
| 20260904063424 | 79 | 70 | 0.0 | 1.0 | 0.00 | 0.00 | 0.00 | 95 | 1015.7 |
| 20260904062918 | 79 | 71 | 0.0 | 1.0 | 0.00 | 0.00 | 0.00 | 95 | 1015.5 |
| 20260904062414 | 79 | 65 | 0.0 | 1.0 | 0.00 | 0.00 | 0.00 | 94 | 1015.5 |
| 20260904061910 | 79 | 63 | 0.0 | 1.0 | 0.00 | 0.00 | 0.00 | 94 | 1015.5 |
| 20260904061407 | 79 | 62 | 1.0 | 1.0 | 0.00 | 0.00 | 0.00 | 94 | 1015.7 |
| 20260904060902 | 79 | 60 | 0.0 | 0.0 | 0.00 | 0.00 | 0.00 | 94 | 1015.6 |
| 20260904060358 | 79 | 64 | 0.0 | 1.0 | 0.00 | 0.00 | 0.00 | 94 | 1015.5 |
| 20260904055853 | 79 | 88 | 1.0 | 6.0 | 0.00 | 0.00 | 0.00 | 94 | 1015.7 |
| 20260904055348 | 79 | 122 | 1.0 | 2.0 | 0.00 | 0.00 | 0.00 | 93 | 1015.6 |
| 20260904054844 | 79 | 123 | 2.0 | 3.0 | 0.00 | 0.00 | 0.00 | 93 | 1015.7 |
| 20260904054340 | 79 | 62 | 0.0 | 1.0 | 0.00 | 0.00 | 0.00 | 93 | 1015.7 |
| 20260904053835 | 80 | 83 | 1.0 | 4.0 | 0.00 | 0.00 | 0.00 | 92 | 1015.9 |
| 20260904053334 | 80 | 85 | 1.0 | 3.0 | 0.00 | 0.00 | 0.00 | 92 | 1015.6 |
| 20260904052831 | 80 | 105 | 1.0 | 2.0 | 0.00 | 0.00 | 0.00 | 92 | 1015.5 |
| 20260904052327 | 79 | 82 | 1.0 | 2.0 | 0.00 | 0.00 | 0.00 | 92 | 1015.3 |
| 20260904051823 | 79 | 68 | 1.0 | 3.0 | 0.00 | 0.00 | 0.00 | 92 | 1015.2 |
| 20260904051318 | 79 | 89 | 2.0 | 4.0 | 0.00 | 0.00 | 0.00 | 92 | 1015.3 |
| 20260904050813 | 79 | 94 | 2.0 | 2.0 | 0.00 | 0.00 | 0.00 | 91 | 1015.4 |
| 20260904050311 | 79 | 93 | 1.0 | 2.0 | 0.00 | 0.00 | 0.00 | 91 | 1015.6 |
| 20260904045810 | 79 | 67 | 0.0 | 1.0 | 0.00 | 0.06 | 0.06 | 91 | 1015.7 |
| 20260904045307 | 80 | 71 | 0.0 | 1.0 | 0.00 | 0.06 | 0.06 | 91 | 1015.6 |
| 20260904044759 | 80 | 101 | 1.0 | 4.0 | 0.00 | 0.06 | 0.06 | 91 | 1015.6 |
| 20260904044257 | 80 | 84 | 1.0 | 1.0 | 0.00 | 0.06 | 0.06 | 91 | 1015.8 |
| 20260904043752 | 80 | 92 | 2.0 | 2.0 | 0.00 | 0.06 | 0.06 | 90 | 1015.8 |
| 20260904043248 | 80 | 74 | 1.0 | 1.0 | 0.00 | 0.06 | 0.06 | 90 | 1015.5 |
| 20260904042743 | 80 | 100 | 1.0 | 2.0 | 0.00 | 0.06 | 0.06 | 90 | 1015.5 |
| 20260904042240 | 80 | 83 | 1.0 | 2.0 | 0.00 | 0.06 | 0.06 | 90 | 1015.6 |
| 20260904041739 | 80 | 70 | 1.0 | 2.0 | 0.00 | 0.06 | 0.06 | 90 | 1015.5 |
| 20260904041235 | 80 | 163 | 1.0 | 2.0 | 0.00 | 0.06 | 0.06 | 89 | 1015.6 |
| 20260904040731 | 80 | 89 | 2.0 | 3.0 | 0.00 | 0.06 | 0.06 | 89 | 1015.7 |
| 20260904040226 | 80 | 96 | 1.0 | 3.0 | 0.00 | 0.06 | 0.06 | 89 | 1015.5 |
| 20260904035722 | 80 | 82 | 0.0 | 2.0 | 0.00 | 0.06 | 0.06 | 89 | 1015.6 |
| 20260904035217 | 80 | 79 | 1.0 | 1.0 | 0.00 | 0.06 | 0.06 | 89 | 1015.7 |
| 20260904034716 | 80 | 81 | 0.0 | 1.0 | 0.00 | 0.06 | 0.06 | 89 | 1015.7 |
| 20260904034212 | 80 | 160 | 2.0 | 3.0 | 0.00 | 0.06 | 0.06 | 89 | 1015.6 |
| 20260904033708 | 80 | 91 | 1.0 | 3.0 | 0.00 | 0.06 | 0.06 | 89 | 1015.4 |
| 20260904033205 | 80 | 69 | 1.0 | 2.0 | 0.00 | 0.06 | 0.06 | 89 | 1015.4 |
| 20260904032701 | 80 | 123 | 2.0 | 2.0 | 0.00 | 0.06 | 0.06 | 89 | 1015.5 |
| 20260904032159 | 80 | 154 | 3.0 | 3.0 | 0.00 | 0.06 | 0.06 | 89 | 1015.4 |
| 20260904031700 | 80 | 71 | 0.0 | 1.0 | 0.00 | 0.06 | 0.06 | 88 | 1015.5 |
| 20260904031155 | 80 | 70 | 1.0 | 2.0 | 0.00 | 0.06 | 0.06 | 88 | 1015.5 |
| 20260904030651 | 80 | 61 | 1.0 | 3.0 | 0.00 | 0.06 | 0.06 | 88 | 1015.7 |
| 20260904030146 | 80 | 77 | 2.0 | 2.0 | 0.00 | 0.06 | 0.06 | 88 | 1015.5 |
| 20260904025642 | 80 | 106 | 2.0 | 3.0 | 0.00 | 0.06 | 0.06 | 88 | 1015.5 |
| 20260904025136 | 80 | 63 | 1.0 | 1.0 | 0.00 | 0.06 | 0.06 | 88 | 1015.6 |
| 20260904024632 | 80 | 172 | 2.0 | 3.0 | 0.00 | 0.06 | 0.06 | 87 | 1015.3 |
| 20260904024127 | 80 | 74 | 1.0 | 1.0 | 0.00 | 0.06 | 0.06 | 88 | 1015.4 |
| 20260904023623 | 80 | 163 | 2.0 | 3.0 | 0.00 | 0.06 | 0.06 | 87 | 1015.2 |
| 20260904023119 | 80 | 87 | 2.0 | 3.0 | 0.00 | 0.06 | 0.06 | 87 | 1015.0 |
| 20260904022613 | 80 | 71 | 1.0 | 4.0 | 0.00 | 0.06 | 0.06 | 87 | 1015.0 |
| 20260904022110 | 80 | 75 | 0.0 | 6.0 | 0.00 | 0.06 | 0.06 | 87 | 1014.9 |
| 20260904021600 | 80 | 86 | 1.0 | 2.0 | 0.00 | 0.06 | 0.06 | 87 | 1014.6 |
| 20260904021055 | 80 | 79 | 2.0 | 2.0 | 0.00 | 0.06 | 0.06 | 87 | 1014.4 |
| 20260904020549 | 80 | 100 | 2.0 | 2.0 | 0.00 | 0.06 | 0.06 | 86 | 1014.6 |
| 20260904020039 | 80 | 107 | 1.0 | 2.0 | 0.00 | 0.06 | 0.06 | 86 | 1014.5 |
| 20260904015533 | 80 | 75 | 0.0 | 1.0 | 0.00 | 0.06 | 0.06 | 86 | 1014.5 |
| 20260904015033 | 80 | 64 | 1.0 | 1.0 | 0.00 | 0.06 | 0.06 | 86 | 1014.6 |
| 20260904014531 | 80 | 79 | 2.0 | 3.0 | 0.00 | 0.06 | 0.06 | 86 | 1014.3 |
| 20260904014027 | 80 | 71 | 1.0 | 2.0 | 0.00 | 0.06 | 0.06 | 86 | 1014.2 |
| 20260904013524 | 80 | 91 | 2.0 | 4.0 | 0.00 | 0.06 | 0.06 | 86 | 1014.3 |
| 20260904013021 | 80 | 109 | 2.0 | 3.0 | 0.00 | 0.06 | 0.06 | 86 | 1014.3 |
| 20260904012520 | 80 | 81 | 2.0 | 3.0 | 0.00 | 0.06 | 0.06 | 86 | 1014.1 |
| 20260904012015 | 80 | 84 | 1.0 | 2.0 | 0.00 | 0.06 | 0.06 | 85 | 1014.0 |
| 20260904011509 | 80 | 92 | 2.0 | 6.0 | 0.00 | 0.06 | 0.06 | 85 | 1014.0 |
| 20260904011004 | 80 | 120 | 2.0 | 3.0 | 0.00 | 0.06 | 0.06 | 86 | 1013.9 |
| 20260904010500 | 80 | 85 | 2.0 | 4.0 | 0.00 | 0.06 | 0.06 | 86 | 1013.9 |
| 20260904005955 | 80 | 83 | 1.0 | 3.0 | 0.00 | 0.06 | 0.06 | 85 | 1014.0 |
| 20260904005451 | 80 | 155 | 1.0 | 2.0 | 0.00 | 0.06 | 0.06 | 85 | 1014.0 |
| 20260904004950 | 80 | 153 | 2.0 | 4.0 | 0.00 | 0.06 | 0.06 | 85 | 1013.9 |
| 20260904004447 | 80 | 80 | 0.0 | 2.0 | 0.00 | 0.06 | 0.06 | 85 | 1014.0 |
| 20260904003947 | 80 | 98 | 2.0 | 3.0 | 0.00 | 0.06 | 0.06 | 84 | 1014.0 |
| 20260904003443 | 80 | 68 | 1.0 | 6.0 | 0.00 | 0.06 | 0.06 | 84 | 1014.1 |
| 20260904002938 | 80 | 169 | 2.0 | 3.0 | 0.00 | 0.06 | 0.06 | 84 | 1013.9 |
| 20260904002435 | 80 | 85 | 1.0 | 7.0 | 0.00 | 0.06 | 0.06 | 84 | 1014.0 |
| 20260904001933 | 80 | 112 | 4.0 | 4.0 | 0.00 | 0.06 | 0.06 | 84 | 1014.2 |
| 20260904001430 | 80 | 85 | 0.0 | 1.0 | 0.00 | 0.06 | 0.06 | 85 | 1014.0 |
| 20260904000929 | 80 | 94 | 1.0 | 3.0 | 0.00 | 0.06 | 0.06 | 85 | 1014.1 |
| 20260904000429 | 80 | 139 | 2.0 | 6.0 | 0.00 | 0.06 | 0.06 | 85 | 1014.2 |
| 20260903235924 | 80 | 86 | 2.0 | 3.0 | 0.00 | 0.06 | 0.06 | 85 | 1014.0 |
| 20260903235420 | 80 | 119 | 2.0 | 6.0 | 0.00 | 0.06 | 0.06 | 85 | 1014.1 |
| 20260903234919 | 80 | 104 | 2.0 | 3.0 | 0.00 | 0.06 | 0.06 | 86 | 1014.1 |
| 20260903234415 | 80 | 80 | 0.0 | 3.0 | 0.00 | 0.06 | 0.06 | 87 | 1014.2 |
| 20260903233912 | 80 | 68 | 0.0 | 3.0 | 0.00 | 0.06 | 0.06 | 88 | 1014.2 |
| 20260903233408 | 80 | 105 | 1.0 | 2.0 | 0.00 | 0.06 | 0.06 | 89 | 1014.2 |
| 20260903232907 | 80 | 74 | 0.0 | 1.0 | 0.00 | 0.06 | 0.06 | 90 | 1014.2 |
| 20260903232403 | 80 | 104 | 1.0 | 2.0 | 0.00 | 0.06 | 0.06 | 90 | 1014.2 |
| 20260903231902 | 80 | 76 | 1.0 | 2.0 | 0.00 | 0.06 | 0.06 | 90 | 1014.4 |
| 20260903231357 | 80 | 85 | 1.0 | 2.0 | 0.00 | 0.06 | 0.06 | 89 | 1014.3 |
| 20260903230852 | 80 | 97 | 1.0 | 2.0 | 0.00 | 0.06 | 0.06 | 89 | 1014.3 |
| 20260903230347 | 80 | 76 | 1.0 | 3.0 | 0.00 | 0.06 | 0.06 | 89 | 1014.3 |
| 20260903225844 | 80 | 80 | 2.0 | 3.0 | 0.00 | 0.06 | 0.06 | 88 | 1014.2 |
| 20260903225339 | 81 | 151 | 0.0 | 3.0 | 0.00 | 0.06 | 0.06 | 88 | 1014.2 |
| 20260903224836 | 81 | 352 | 2.0 | 4.0 | 0.00 | 0.06 | 0.06 | 88 | 1014.3 |
| 20260903224331 | 81 | 78 | 0.0 | 3.0 | 0.00 | 0.06 | 0.06 | 89 | 1014.6 |
| 20260903223827 | 81 | 93 | 2.0 | 4.0 | 0.00 | 0.06 | 0.06 | 88 | 1014.6 |
| 20260903223326 | 81 | 72 | 1.0 | 3.0 | 0.00 | 0.06 | 0.06 | 90 | 1014.5 |
| 20260903222821 | 81 | 90 | 2.0 | 6.0 | 0.00 | 0.06 | 0.06 | 90 | 1014.3 |
| 20260903222320 | 81 | 75 | 2.0 | 3.0 | 0.00 | 0.06 | 0.06 | 90 | 1014.8 |
| 20260903221815 | 81 | 116 | 1.0 | 2.0 | 0.00 | 0.06 | 0.06 | 91 | 1014.7 |
| 20260903221314 | 81 | 95 | 2.0 | 4.0 | 0.00 | 0.06 | 0.06 | 91 | 1014.8 |
| 20260903220812 | 81 | 184 | 1.0 | 2.0 | 0.00 | 0.06 | 0.06 | 91 | 1014.6 |
| 20260903220307 | 81 | 97 | 2.0 | 3.0 | 0.00 | 0.06 | 0.06 | 92 | 1014.8 |
| 20260903215804 | 81 | 113 | 3.0 | 4.0 | 0.00 | 0.06 | 0.06 | 92 | 1014.7 |
| 20260903215301 | 82 | 27 | 2.0 | 9.0 | 0.00 | 0.06 | 0.06 | 93 | 1014.8 |
| 20260903214759 | 81 | 96 | 1.0 | 4.0 | 0.00 | 0.06 | 0.06 | 93 | 1014.9 |
| 20260903214255 | 81 | 68 | 2.0 | 3.0 | 0.07 | 0.06 | 0.06 | 93 | 1015.0 |
| 20260903213749 | 81 | 76 | 2.0 | 3.0 | 0.07 | 0.06 | 0.06 | 92 | 1015.2 |
| 20260903213246 | 81 | 106 | 2.0 | 3.0 | 0.00 | 0.05 | 0.05 | 92 | 1015.4 |
| 20260903212741 | 81 | 65 | 0.0 | 2.0 | 0.00 | 0.05 | 0.05 | 91 | 1015.4 |
| 20260903212238 | 82 | 87 | 3.0 | 3.0 | 0.00 | 0.05 | 0.05 | 90 | 1015.2 |
| 20260903211736 | 82 | 71 | 1.0 | 4.0 | 0.00 | 0.05 | 0.05 | 89 | 1015.4 |
| 20260903211233 | 82 | 89 | 2.0 | 3.0 | 0.00 | 0.05 | 0.05 | 88 | 1015.5 |
| 20260903210729 | 82 | 74 | 0.0 | 4.0 | 0.00 | 0.05 | 0.05 | 87 | 1015.5 |
| 20260903210225 | 82 | 92 | 1.0 | 3.0 | 0.00 | 0.05 | 0.05 | 87 | 1015.4 |
| 20260903205724 | 82 | 79 | 1.0 | 2.0 | 0.00 | 0.05 | 0.05 | 87 | 1015.6 |
| 20260903205223 | 82 | 108 | 1.0 | 3.0 | 0.00 | 0.05 | 0.05 | 87 | 1015.5 |
| 20260903204719 | 82 | 58 | 0.0 | 2.0 | 0.00 | 0.05 | 0.05 | 87 | 1015.5 |
| 20260903204215 | 82 | 78 | 0.0 | 2.0 | 0.00 | 0.05 | 0.05 | 87 | 1015.6 |
| 20260903203710 | 82 | 59 | 1.0 | 2.0 | 0.00 | 0.05 | 0.05 | 87 | 1015.5 |
| 20260903203206 | 82 | 56 | 0.0 | 3.0 | 0.00 | 0.05 | 0.05 | 87 | 1015.7 |
| 20260903202705 | 82 | 64 | 0.0 | 1.0 | 0.00 | 0.05 | 0.05 | 87 | 1015.8 |
| 20260903202201 | 82 | 53 | 1.0 | 3.0 | 0.00 | 0.05 | 0.05 | 87 | 1015.6 |
| 20260903201701 | 82 | 58 | 1.0 | 3.0 | 0.00 | 0.05 | 0.05 | 88 | 1015.7 |
| 20260903201156 | 82 | 87 | 2.0 | 3.0 | 0.00 | 0.05 | 0.05 | 89 | 1015.7 |
| 20260903200650 | 81 | 152 | 3.0 | 3.0 | 0.00 | 0.05 | 0.05 | 89 | 1016.0 |
| 20260903200146 | 81 | 100 | 2.0 | 3.0 | 0.00 | 0.05 | 0.05 | 91 | 1015.9 |
| 20260903195642 | 80 | 78 | 2.0 | 4.0 | 0.00 | 0.05 | 0.05 | 91 | 1015.8 |
| 20260903195137 | 80 | 82 | 0.0 | 2.0 | 0.00 | 0.05 | 0.05 | 93 | 1016.1 |
| 20260903194637 | 81 | 214 | 2.0 | 4.0 | 0.05 | 0.05 | 0.05 | 93 | 1016.1 |
| 20260903194132 | 80 | 74 | 1.0 | 3.0 | 0.05 | 0.05 | 0.05 | 95 | 1016.2 |
| 20260903193628 | 80 | 98 | 1.0 | 3.0 | 0.00 | 0.04 | 0.04 | 95 | 1016.0 |
| 20260903193123 | 81 | 100 | 2.0 | 4.0 | 0.00 | 0.04 | 0.04 | 96 | 1016.3 |
| 20260903192620 | 80 | 77 | 1.0 | 7.0 | 0.00 | 0.04 | 0.04 | 96 | 1016.3 |
| 20260903192120 | 80 | 85 | 1.0 | 2.0 | 0.00 | 0.04 | 0.04 | 97 | 1016.2 |
| 20260903191616 | 80 | 78 | 2.0 | 3.0 | 0.00 | 0.04 | 0.04 | 97 | 1016.2 |
| 20260903191111 | 80 | 87 | 2.0 | 3.0 | 0.00 | 0.04 | 0.04 | 97 | 1016.4 |
| 20260903190610 | 80 | 66 | 0.0 | 1.0 | 0.00 | 0.04 | 0.04 | 98 | 1016.5 |
| 20260903190105 | 80 | 58 | 0.0 | 0.0 | 0.00 | 0.04 | 0.04 | 98 | 1016.5 |
| 20260903185600 | 80 | 68 | 1.0 | 1.0 | 0.00 | 0.04 | 0.04 | 97 | 1016.5 |
| 20260903185055 | 80 | 62 | 0.0 | 1.0 | 0.07 | 0.04 | 0.04 | 98 | 1016.8 |
| 20260903184552 | 80 | 96 | 0.0 | 1.0 | 0.07 | 0.04 | 0.04 | 98 | 1016.6 |
| 20260903184046 | 79 | 48 | 0.0 | 1.0 | 0.00 | 0.03 | 0.03 | 97 | 1016.6 |
| 20260903183545 | 79 | 60 | 0.0 | 0.0 | 0.00 | 0.03 | 0.03 | 97 | 1016.6 |
| 20260903183041 | 80 | 60 | 0.0 | 1.0 | 0.00 | 0.03 | 0.03 | 97 | 1016.8 |
| 20260903182539 | 80 | 62 | 0.0 | 0.0 | 0.00 | 0.03 | 0.03 | 97 | 1016.6 |
| 20260903182036 | 79 | 57 | 0.0 | 0.0 | 0.00 | 0.03 | 0.03 | 97 | 1016.6 |
| 20260903181535 | 79 | 50 | 0.0 | 0.0 | 0.00 | 0.03 | 0.03 | 97 | 1016.7 |
| 20260903181034 | 79 | 55 | 0.0 | 0.0 | 0.00 | 0.03 | 0.03 | 97 | 1016.8 |
| 20260903180530 | 79 | 56 | 0.0 | 0.0 | 0.05 | 0.03 | 0.03 | 97 | 1016.9 |
| 20260903180029 | 79 | 54 | 0.0 | 0.0 | 0.00 | 0.02 | 0.02 | 97 | 1017.1 |
| 20260903175528 | 79 | 61 | 0.0 | 1.0 | 0.00 | 0.02 | 0.02 | 96 | 1016.9 |
| 20260903175027 | 79 | 55 | 0.0 | 1.0 | 0.00 | 0.02 | 0.02 | 96 | 1017.2 |
| 20260903174522 | 80 | 54 | 0.0 | 0.0 | 0.07 | 0.02 | 0.02 | 96 | 1017.2 |
| 20260903174017 | 79 | 56 | 0.0 | 0.0 | 0.07 | 0.02 | 0.02 | 96 | 1017.4 |
| 20260903173512 | 79 | 55 | 0.0 | 0.0 | 0.00 | 0.01 | 0.01 | 95 | 1017.6 |
| 20260903173008 | 79 | 58 | 0.0 | 0.0 | 0.00 | 0.01 | 0.01 | 96 | 1017.4 |
| 20260903172503 | 79 | 62 | 1.0 | 1.0 | 0.05 | 0.01 | 0.01 | 95 | 1017.8 |
| 20260903171958 | 79 | 79 | 0.0 | 0.0 | 0.05 | 0.01 | 0.01 | 95 | 1018.0 |
| 20260903171453 | 79 | 58 | 0.0 | 1.0 | 0.00 | 0.00 | 0.00 | 94 | 1018.0 |
| 20260903170948 | 80 | 46 | 0.0 | 1.0 | 0.00 | 0.00 | 0.00 | 94 | 1018.1 |
| 20260903170442 | 80 | 55 | 0.0 | 0.0 | 0.00 | 0.00 | 0.00 | 94 | 1017.9 |
| 20260903165942 | 80 | 57 | 0.0 | 0.0 | 0.00 | 0.00 | 0.00 | 94 | 1018.0 |
| 20260903165436 | 80 | 64 | 0.0 | 2.0 | 0.00 | 0.00 | 0.00 | 93 | 1017.9 |
| 20260903164930 | 80 | 52 | 0.0 | 0.0 | 0.00 | 0.00 | 0.00 | 93 | 1017.7 |
| 20260903164425 | 81 | 54 | 0.0 | 0.0 | 0.00 | 0.00 | 0.00 | 93 | 1017.7 |
| 20260903163925 | 81 | 55 | 0.0 | 1.0 | 0.00 | 0.00 | 0.00 | 92 | 1017.8 |
| 20260903163421 | 81 | 71 | 0.0 | 0.0 | 0.00 | 0.00 | 0.00 | 92 | 1017.6 |
| 20260903162917 | 81 | 55 | 0.0 | 1.0 | 0.00 | 0.00 | 0.00 | 92 | 1017.7 |
| 20260903162413 | 81 | 58 | 0.0 | 0.0 | 0.00 | 0.00 | 0.00 | 92 | 1017.7 |
| 20260903161909 | 80 | 55 | 0.0 | 2.0 | 0.00 | 0.00 | 0.00 | 92 | 1017.7 |
| 20260903161403 | 80 | 59 | 0.0 | 0.0 | 0.00 | 0.00 | 0.00 | 92 | 1017.8 |
| 20260903160900 | 80 | 62 | 0.0 | 2.0 | 0.00 | 0.00 | 0.00 | 93 | 1017.8 |
| 20260903160358 | 80 | 95 | 1.0 | 3.0 | 0.00 | 0.00 | 0.00 | 93 | 1017.7 |
| 20260903155857 | 80 | 91 | 1.0 | 1.0 | 0.00 | 0.00 | 0.00 | 93 | 1017.5 |
| 20260903155352 | 80 | 80 | 3.0 | 3.0 | 0.00 | 0.00 | 0.00 | 93 | 1017.4 |
| 20260903154848 | 80 | 76 | 1.0 | 1.0 | 0.00 | 0.00 | 0.00 | 94 | 1017.6 |
| 20260903154344 | 81 | 92 | 0.0 | 2.0 | 0.00 | 0.00 | 0.00 | 93 | 1017.5 |
| 20260903153839 | 81 | 62 | 0.0 | 0.0 | 0.00 | 0.00 | 0.00 | 93 | 1017.6 |
| 20260903153335 | 81 | 56 | 0.0 | 1.0 | 0.00 | 0.00 | 0.00 | 93 | 1017.6 |
| 20260903152832 | 81 | 103 | 0.0 | 1.0 | 0.00 | 0.00 | 0.00 | 92 | 1017.6 |
| 20260903152327 | 82 | 75 | 0.0 | 1.0 | 0.00 | 0.00 | 0.00 | 92 | 1017.5 |
| 20260903151822 | 82 | 50 | 0.0 | 1.0 | 0.00 | 0.00 | 0.00 | 91 | 1017.5 |
| 20260903151318 | 82 | 49 | 0.0 | 1.0 | 0.00 | 0.00 | 0.00 | 91 | 1017.5 |
| 20260903150817 | 82 | 91 | 0.0 | 1.0 | 0.00 | 0.00 | 0.00 | 91 | 1017.5 |
| 20260903150317 | 82 | 59 | 1.0 | 1.0 | 0.00 | 0.00 | 0.00 | 91 | 1017.6 |
| 20260903145812 | 81 | 84 | 1.0 | 2.0 | 0.00 | 0.00 | 0.00 | 91 | 1017.4 |
| 20260903145307 | 81 | 135 | 4.0 | 6.0 | 0.00 | 0.00 | 0.00 | 91 | 1017.3 |
| 20260903144806 | 81 | 106 | 1.0 | 3.0 | 0.00 | 0.00 | 0.00 | 92 | 1017.2 |
| 20260903144302 | 81 | 47 | 3.0 | 4.0 | 0.00 | 0.00 | 0.00 | 92 | 1017.2 |
| 20260903143757 | 81 | 76 | 1.0 | 2.0 | 0.00 | 0.00 | 0.00 | 93 | 1017.3 |
| 20260903143253 | 81 | 72 | 0.0 | 3.0 | 0.00 | 0.00 | 0.00 | 94 | 1017.1 |
| 20260903142749 | 81 | 93 | 2.0 | 2.0 | 0.00 | 0.00 | 0.00 | 94 | 1017.2 |
| 20260903142245 | 80 | 75 | 2.0 | 4.0 | 0.00 | 0.00 | 0.00 | 94 | 1017.0 |
| 20260903141740 | 80 | 70 | 0.0 | 2.0 | 0.00 | 0.00 | 0.00 | 95 | 1017.0 |
| 20260903141236 | 80 | 134 | 3.0 | 4.0 | 0.00 | 0.00 | 0.00 | 95 | 1016.9 |
| 20260903140731 | 80 | 75 | 2.0 | 3.0 | 0.00 | 0.00 | 0.00 | 95 | 1017.0 |
| 20260903140226 | 80 | 86 | 4.0 | 6.0 | 0.00 | 0.00 | 0.00 | 95 | 1017.0 |
| 20260903135722 | 80 | 72 | 1.0 | 3.0 | 0.00 | 0.00 | 0.00 | 95 | 1016.7 |
| 20260903135217 | 80 | 301 | 1.0 | 1.0 | 0.00 | 0.00 | 0.00 | 95 | 1016.7 |
| 20260903134715 | 80 | 53 | 0.0 | 1.0 | 0.00 | 0.00 | 0.00 | 95 | 1016.8 |
| 20260903134212 | 80 | 71 | 1.0 | 1.0 | 0.00 | 0.00 | 0.00 | 96 | 1016.7 |
| 20260903133709 | 80 | 56 | 0.0 | 2.0 | 0.00 | 0.00 | 0.00 | 95 | 1016.7 |
| 20260903133206 | 80 | 77 | 1.0 | 1.0 | 0.00 | 0.00 | 0.00 | 95 | 1016.6 |
| 20260903132705 | 80 | 62 | 0.0 | 4.0 | 0.00 | 0.00 | 0.00 | 95 | 1016.7 |
| 20260903132200 | 80 | 87 | 1.0 | 2.0 | 0.00 | 0.00 | 0.00 | 96 | 1016.6 |
| 20260903131655 | 80 | 58 | 0.0 | 0.0 | 0.00 | 0.00 | 0.00 | 96 | 1016.5 |
| 20260903131155 | 80 | 110 | 2.0 | 2.0 | 0.00 | 0.00 | 0.00 | 96 | 1016.5 |
| 20260903130650 | 80 | 54 | 0.0 | 4.0 | 0.00 | 0.00 | 0.00 | 96 | 1016.5 |
| 20260903130150 | 80 | 55 | 2.0 | 3.0 | 0.00 | 0.00 | 0.00 | 96 | 1016.5 |
| 20260903125648 | 80 | 59 | 0.0 | 2.0 | 0.00 | 0.00 | 0.00 | 96 | 1016.4 |